Volver al catálogo

COSMOS 1275 DEB

ActivoPO
NORAD 12712·DEBRIS·🇷🇺 Russia

Lanzado Jun 4, 1981 desde Plesetsk Cosmodrome

Loading…

Próximos Pases (próximas 24 horas)

TLE

ActualizadoSource: Space-Track

Época: Sep 14, 2026, 17:15 UTC

1 12712U 81053BG  26257.71916653  .00000827  00000-0  65118-3 0  9991
2 12712  82.9808 249.0579 0067996 196.1602 340.4607 13.89608294263889

Sigue COSMOS 1275 DEB en tiempo real con AllMySat

Download on the App Store